STARLINK-32741, 62526

Orbit data source: Space-Track

STARLINK-32741, 62526 is a payload satellite owned by SpaceX/Seattle (US) in LEO that was launched on Wed, 08 Jan 2025 UTC via an FALCON 9 launch vehicle from the Air Force Eastern Test Range (AFETR). Payload-class satellites include a variety of spacecraft equipped with specific instruments for various scientific and technological missions. These include communications satellites like Starlink; space stations such as the ISS; scientific satellites like the Hubble; Earth observation satellites from companies like Planet Labs, Umbra, and HawkEye 360; GPS; miniature CubeSats for education and research; and military/defense satellites.

Loading next visibility...
Identifier
62526, 2025-004R
Orbit
LEO
Country
Flag of USUS
Related business
Manufacturer
SpaceX/Seattle
Mission
Operational Commercial Communications
Bus & Motor
STARLINK V2M, Unknown motor
Mass
730 kg wet, ~700 kg dry
Launch date (UTC)
2025-01-08 (1 year ago)
Launch vehicle
FALCON 9
Launch site
Air Force Eastern Test Range (AFETR)
Object type
Payload
Rocket body
Debris
Shape & HBR
Box + 2 Pan, 17.7 m
Radar Cross Section
33.884 m², Large (>1 m²)

Expand to show TLE details & history
Last TLE update: 9 hours ago

TLE from 9 hours ago
0 STARLINK-32741
1 62526U 25004R   26038.00623007  .00048611  00000-0  17625-2 0  9992
2 62526  43.0010  29.8923 0000955 251.6046 108.4702 15.27615792 61809
Epoch: 2026-02-07T00:08Z
TLE epoch observation values (Epoch: 2026-02-07T00:08:58.278Z)
Latitude
0.00001°
Longitude
-109.48647°
Altitude
482.925 km
Speed
7.626 km/s
True Right ascension
01h 59m 34s
True Declination
0° 00' 00"
Sunlit
Object was in daylight at epoch
Visualization orbit readout
Latitude
Unknown
Longitude
Unknown
Altitude
Unknown
Speed
Unknown
Apparent Right ascension
Unknown
Apparent Declination
Unknown
Sunlit
N/A
Visualization observer readout
Local Sidereal Time
11:31:12
Azimuth
Unknown
Elevation
Unknown
Doppler factor
Unknown
Orbital elements
Apogee altitude
485.542 km
Perigee altitude
484.232 km
Semi-major axis
6,863.024 km
Eccentricity
0.0001
Inclination
43.001°
RAAN
29.8923°
Arg. of periapsis
251.6046°
True anomaly
108.48058°
Mean anomaly
108.4702°
Eccentric anomaly
108.47539°
Mean motion
3.81742 °/min
Orbital period
94.3 mins
BSTAR
0.0017625
Loading maneuver chart data...
Computing Atmospheric mass density...
Loading historical data...
Loading historical data...
Loading historical data...
Loading historical data...
Loading historical data...
Loading historical data...
Loading historical data...

Documentation

Showing up to 5 results
|